Vorticity
nan nan nan nan nan nan nan nan nan nan nan nan nan nan nan nan nan nan nan nan nan nan nan nan nan nan nan nan nan nan nan nan nan nan nan nan nan nan nan nan nan nan nan nan nan
nan 6 7 7 7 8 7 7 7 7 7 9 10 10 11 12 9 8 3 -3 -3 3 5 7 10 9 9 7 7 5 3 6 5 4 6 9 5 4 1 6 7 9 11 6 nan
nan 6 6 6 7 7 8 8 8 7 9 9 8 11 10 4 9 20 18 13 6 2 2 4 6 10 15 10 4 3 -1 5 4 1 8 6 4 6 7 7 8 4 5 7 nan
nan 6 6 6 7 7 7 8 8 7 8 9 9 11 9 1 1 10 14 16 17 14 8 7 8 7 9 14 7 3 7 -0 1 7 7 7 5 5 5 6 4 5 6 5 nan
nan 6 6 7 7 7 7 7 7 7 7 9 10 8 5 3 6 0 2 6 10 10 10 6 5 8 3 8 10 10 6 6 5 4 5 5 4 7 6 7 6 8 9 10 nan
nan 7 7 7 6 7 7 7 6 7 7 8 12 6 4 6 11 5 1 -1 3 11 12 7 6 3 12 8 7 13 9 5 7 10 7 3 4 7 8 5 6 7 7 12 nan
nan 7 8 7 6 6 8 9 8 8 6 9 11 8 9 7 0 13 9 2 4 6 10 12 5 7 10 8 15 13 13 16 9 8 7 11 5 5 4 6 7 9 10 11 nan
nan 7 7 8 8 8 8 9 9 9 9 10 9 7 9 14 5 4 7 11 8 9 7 2 9 13 6 6 11 19 14 9 13 9 9 6 6 10 8 13 10 8 8 9 nan
nan 7 8 8 9 10 9 9 12 12 12 10 8 9 6 13 17 7 6 4 5 6 9 11 8 7 13 8 7 12 14 9 6 11 10 2 7 7 8 14 9 7 9 8 nan
nan 9 9 8 10 10 10 6 10 14 13 7 7 9 16 6 14 13 9 7 3 3 9 12 10 9 9 9 4 1 4 12 11 9 8 5 6 2 12 12 4 7 13 11 nan
nan 12 9 8 10 9 5 4 7 13 12 7 2 -1 2 10 10 14 13 11 8 9 10 5 7 9 8 1 1 3 7 5 10 10 7 10 8 6 6 3 10 9 10 8 nan
nan 12 9 9 11 9 2 5 9 10 13 10 5 6 -7 10 10 10 11 10 10 7 6 8 6 7 3 9 8 6 2 8 12 11 13 9 8 6 9 8 9 7 9 8 nan
nan 9 8 11 11 11 8 2 8 10 12 19 17 10 12 12 9 9 9 6 8 8 8 6 4 7 8 7 10 9 6 6 8 5 11 15 13 10 7 8 10 12 12 8 nan
nan 9 8 6 11 13 13 12 6 5 11 16 15 19 14 6 15 12 10 8 5 11 9 8 13 9 10 7 9 8 11 6 9 10 10 7 14 17 10 6 9 11 11 8 nan
nan 9 10 -2 1 13 15 17 5 5 10 15 12 11 16 1 9 24 14 5 8 7 4 9 14 14 10 9 6 5 13 10 5 11 12 8 4 18 24 11 6 9 10 8 nan
nan 8 4 2 4 15 12 3 4 7 15 5 9 10 7 6 -3 16 23 4 10 12 7 7 7 15 20 16 2 13 10 11 20 12 10 10 5 11 20 18 5 9 12 9 nan
nan 7 1 5 15 11 2 2 7 5 12 12 8 11 8 7 7 13 15 4 1 11 14 11 12 9 12 21 22 13 5 10 17 11 16 17 1 5 15 21 17 11 8 6 nan
nan 4 1 7 17 4 1 7 7 11 7 8 13 9 11 10 13 10 9 15 4 -2 10 13 19 18 4 4 20 20 -3 -1 9 10 17 13 6 12 11 12 16 13 10 7 nan
nan 1 10 17 8 2 5 4 8 9 14 8 7 9 10 10 14 17 5 8 15 7 1 11 14 17 9 6 7 13 15 -1 5 10 7 7 6 12 11 10 13 12 9 7 nan
nan 10 11 17 6 2 5 8 6 7 10 9 8 9 7 9 9 12 6 8 15 10 9 4 12 13 10 16 11 7 12 9 9 9 9 12 8 9 9 8 10 11 8 6 nan
nan 11 17 10 1 6 8 10 10 11 5 6 6 3 8 11 9 6 4 12 19 17 5 5 5 5 14 20 8 5 5 6 9 12 9 9 13 17 13 11 10 10 11 9 nan
nan 11 15 8 2 7 11 8 10 19 9 3 7 11 17 10 10 4 5 16 18 12 5 4 5 11 9 17 12 6 15 6 -2 8 10 11 9 11 13 14 14 14 14 8 nan
nan 11 12 5 8 7 8 9 7 11 9 5 8 11 10 11 15 14 10 13 10 9 12 3 4 1 16 17 13 11 7 8 7 12 10 9 13 7 8 10 13 16 13 11 nan
nan 8 9 7 9 12 12 8 13 11 6 6 9 11 8 13 7 7 14 13 13 8 1 2 12 3 12 19 12 11 8 8 9 5 10 11 15 7 8 8 9 11 13 13 nan
nan 11 11 11 9 6 6 10 9 15 22 9 7 13 6 12 10 10 12 6 11 12 5 3 8 5 21 20 7 9 6 4 8 7 6 9 10 14 11 9 8 8 10 11 nan
nan 9 9 13 18 13 4 7 7 5 10 9 8 10 10 6 10 11 10 6 11 11 6 6 3 12 12 13 17 9 11 8 5 6 4 5 9 13 9 15 14 11 10 11 nan
nan nan nan nan nan nan nan nan nan nan nan nan nan nan nan nan nan nan nan nan nan nan nan nan nan nan nan nan nan nan nan nan nan nan nan nan nan nan nan nan nan nan nan nan nan
CAPE
0 1 3 10 6 1 0 0 0 0 0 3 2 11 58 60 49 6 0 0 0 0 0 0 0 0 0 6 0 11 0 0 0 0 0 0 0 0 0 0 0 0 0 0 0
1 3 2 4 3 1 0 0 0 1 0 0 2 5 25 9 4 23 0 11 15 1 0 0 0 0 0 36 0 3 0 0 0 0 0 0 0 0 0 0 0 0 0 0 0
2 4 1 3 2 4 0 2 1 1 5 0 0 27 50 0 13 0 13 14 30 18 0 0 0 0 7 7 18 5 0 0 0 0 0 0 0 0 0 0 0 0 0 0 0
2 3 2 2 3 3 0 0 1 1 0 8 1 19 58 30 23 34 12 0 0 1 5 0 0 0 13 11 13 20 11 0 0 0 8 0 0 0 0 0 0 0 0 0 0
1 3 4 3 6 9 0 0 0 2 17 12 36 50 9 9 5 11 0 0 0 0 2 1 6 0 0 20 43 20 15 10 1 0 0 2 0 0 0 0 0 0 0 0 0
12 4 5 4 7 10 7 0 2 32 23 39 48 66 17 5 0 0 15 2 0 3 24 36 30 6 0 11 22 50 38 23 10 1 1 2 0 0 0 0 0 0 0 0 0
22 2 20 19 6 10 7 9 4 28 34 47 53 27 21 0 0 0 15 0 0 0 0 15 20 45 27 11 30 50 48 70 13 4 6 2 0 0 0 0 0 0 0 0 0
22 20 22 38 27 23 6 0 16 40 57 50 52 41 11 0 0 0 0 0 0 0 0 0 1 40 39 26 36 49 57 7 0 10 8 4 0 0 0 0 0 0 0 0 0
17 33 27 49 52 59 46 7 16 24 50 56 36 51 2 0 0 0 0 0 0 0 0 0 0 18 49 31 36 47 9 1 0 16 7 9 0 0 0 0 0 0 0 0 0
58 56 51 44 66 67 55 0 4 24 32 39 24 34 0 0 0 0 0 1 0 0 0 17 21 26 27 40 5 4 32 1 7 4 44 3 9 0 0 0 0 0 0 0 0
61 51 46 67 66 65 36 0 0 2 2 0 0 0 4 0 0 0 0 1 1 4 2 9 41 10 1 0 0 7 21 155 25 71 78 6 6 0 0 0 0 0 0 0 0
61 32 40 66 74 65 49 6 0 0 6 3 0 1 3 7 1 0 0 9 13 12 2 25 16 0 0 1 15 2 26 25 56 154 69 41 18 0 0 0 0 0 0 0 0
49 24 30 35 53 53 17 2 0 0 5 7 0 0 1 7 9 6 0 0 1 9 10 7 0 0 9 13 25 26 23 88 60 147 46 20 2 0 0 0 0 0 0 0 0
42 26 21 33 24 8 38 36 2 0 0 1 3 5 0 3 7 1 13 9 11 7 13 39 0 3 8 10 4 13 0 25 4 110 5 0 0 0 0 0 0 0 0 0 0
38 39 21 6 46 30 2 0 0 0 0 0 18 0 6 3 5 0 0 27 24 3 33 0 0 8 23 0 4 1 7 31 20 2 25 0 0 0 0 0 0 0 0 0 0
25 19 35 42 21 16 5 1 0 3 0 1 10 19 32 12 12 0 8 44 26 39 22 12 40 73 48 13 0 17 21 3 71 0 31 0 0 10 0 0 0 0 0 0 0
28 10 13 5 3 1 0 1 4 18 0 13 12 16 7 29 33 12 24 36 31 32 31 10 12 43 11 44 121 151 94 52 37 6 5 0 38 0 0 0 0 0 0 0 0
24 19 2 0 0 0 7 7 7 4 0 3 9 13 40 34 34 14 14 44 46 24 18 6 7 2 0 2 98 71 24 1 26 2 2 0 0 2 0 0 0 0 0 0 0
15 7 6 2 0 0 9 2 5 16 10 13 13 27 39 51 17 16 24 7 0 4 9 177 5 7 0 0 75 28 0 0 10 0 0 0 0 0 0 0 0 0 0 0 0
1 2 7 0 2 5 15 4 9 9 2 10 26 2 9 9 3 11 16 0 4 11 0 0 6 15 28 22 14 15 0 10 12 1 11 0 0 0 0 0 0 0 0 0 0
0 2 0 1 4 20 10 3 7 5 6 8 0 3 5 0 0 0 0 0 0 0 0 4 28 1 0 69 29 44 42 24 7 4 3 1 0 0 0 0 0 0 0 0 0
0 3 5 20 21 22 13 4 22 17 4 17 3 9 1 2 0 6 0 0 0 0 2 19 16 3 1 0 8 22 17 1 7 0 0 0 0 0 0 0 0 0 0 0 0
1 11 14 14 10 13 3 12 10 21 30 18 3 0 8 2 0 0 9 3 1 0 0 10 13 2 0 6 2 33 1 0 0 0 0 0 0 0 0 0 0 0 0 0 0
0 16 30 17 5 20 8 17 10 8 3 10 0 2 4 3 0 0 0 7 14 0 64 26 15 5 0 0 0 2 0 0 0 2 0 0 0 0 0 0 0 0 0 0 0
0 7 5 8 5 4 9 8 11 12 7 0 1 0 12 6 3 0 0 1 2 0 25 16 16 5 0 0 0 4 5 0 0 0 0 0 0 0 0 0 0 0 0 0 0
0 0 9 33 0 5 4 14 6 8 17 7 0 16 19 0 0 0 0 0 0 1 2 0 2 0 0 0 2 3 3 0 0 0 0 0 0 0 0 0 0 0 0 0 0
0 0 0 8 14 22 16 1 4 5 11 0 0 0 29 11 1 0 0 0 0 0 0 3 0 1 0 0 0 0 0 0 0 0 0 0 0 0 0 0 0 0 0 0 0